Anchorage, AK

1:28 AM AKDT on March 30, 2017 (GMT -0800)
Ted Stevens Anchorage Int'l Airport

Weather History for PANC - January, 2012

Change the Weather History Date:

Sunday, January 15, 2012

  Actual Average Record
Temperature  
Mean Temperature -6 °F 17 °F  
Max Temperature -2 °F 23 °F 45 °F (2009)
Min Temperature -10 °F 11 °F -25 °F (1973)
Degree Days  
Heating Degree Days 71    
Month to date heating degree days 903  
Since 1 July heating degree days 5581  
Cooling Degree Days 0    
Month to date cooling degree days 0  
Year to date cooling degree days 0  
Moisture  
Dew Point -10 °F    
Average Humidity 77    
Maximum Humidity 83    
Minimum Humidity 71    
Precipitation  
Precipitation 0.00 in 0.02 in 0.25 in (2014)
Month to date precipitation 1.48 0.36  
Year to date precipitation 1.48 0.36  
Snow  
Snow 0.00 in 0.40 in 3.70 in (2006)
Month to date snowfall 22.5 5.6  
Since 1 July snowfall 89.4 43.7  
Snow Depth 27.00 in    
Sea Level Pressure  
Sea Level Pressure 30.80 in    
Wind  
Wind Speed 2 mph (ESE)    
Max Wind Speed 6 mph    
Max Gust Speed -    
Visibility 5 miles    
Events Fog , Snow    
T = Trace of Precipitation, MM = Missing Value Source: NWS Daily Summary

Daily Weather History Graph

Daily Weather History Graph

Search for Another Location

Airport or City:

Trip Planner

Search our weather history database for the weather conditions in past years. The results will help you decide how hot, cold, wet, or windy it might be!

Date:

Astronomy

Jan. 15, 2012 Rise Set
Actual Time 9:57 AM AKST 4:21 PM AKST
Civil Twilight 9:01 AM AKST 5:17 PM AKST
Nautical Twilight 8:04 AM AKST 6:14 PM AKST
Astronomical Twilight 7:12 AM AKST 7:06 PM AKST
Moon 1:08 AM AKST (1/15) 10:57 AM AKST (1/15)
Length of Visible Light 8h 16m
Length of Day
6h 24m
Waning Gibbous, 56% of the Moon is Illuminated
Jan 15
Waning Gibbous
Jan 16
Last Quarter
Jan 22
New
Jan 30
First Quarter
Feb 7
Full

Hourly Weather History & Observations

Time (AKST) Temp. Windchill Dew Point Humidity Pressure Visibility Wind Dir Wind Speed Gust Speed Precip Events Conditions
12:15 AM -5.8 °F - -9.4 °F 84% 30.79 in 0.2 mi Calm Calm - N/A Fog Light Freezing Fog
12:22 AM -5.8 °F - -7.6 °F 92% 30.79 in 0.2 mi Calm Calm - N/A Fog Light Freezing Fog
12:53 AM -5.1 °F - -9.9 °F 80% 30.80 in 4.0 mi Calm Calm - N/A   Mostly Cloudy
1:53 AM -0.9 °F -12.7 °F -6.0 °F 79% 30.80 in 10.0 mi NNW 5.8 mph - N/A   Scattered Clouds
2:51 AM -2.2 °F - -7.6 °F 78% 30.78 in 0.5 mi Calm Calm - 0.00 in   Haze
3:32 AM -2.2 °F - -5.8 °F 85% 30.77 in 5.0 mi Calm Calm - 0.00 in Snow Light Snow
3:53 AM -2.9 °F - -9.0 °F 75% 30.79 in 9.0 mi Calm Calm - 0.00 in Snow Light Snow
4:15 AM -5.8 °F - -9.4 °F 84% 30.77 in 0.5 mi Calm Calm - N/A   Scattered Clouds
4:53 AM -5.1 °F - -9.0 °F 83% 30.80 in 0.5 mi Calm Calm - N/A   Scattered Clouds
5:18 AM -2.2 °F - -9.4 °F 71% 30.78 in 0.5 mi Calm Calm - N/A   Mostly Cloudy
5:53 AM -7.1 °F -15.9 °F -11.9 °F 79% 30.81 in 0.2 mi SSE 3.5 mph - 0.00 in Fog Light Freezing Fog
6:53 AM -5.1 °F - -7.1 °F 91% 30.80 in 0.2 mi Calm Calm - 0.00 in Fog , Snow Light Snow
7:21 AM -4.0 °F - -7.6 °F 85% 30.79 in 0.5 mi Calm Calm - 0.00 in   Overcast
7:53 AM -2.0 °F -12.2 °F -4.0 °F 91% 30.81 in 0.5 mi NW 4.6 mph - 0.00 in   Overcast
8:31 AM -2.2 °F - -7.6 °F 78% 30.79 in 1.0 mi Calm Calm - N/A   Mostly Cloudy
8:36 AM -2.2 °F - -7.6 °F 78% 30.80 in 3.0 mi Calm Calm - N/A   Mostly Cloudy
8:41 AM -4.0 °F - -9.4 °F 78% 30.80 in 5.0 mi Calm Calm - N/A   Mostly Cloudy
8:53 AM -2.9 °F - -9.0 °F 75% 30.82 in 6.0 mi Calm Calm - N/A   Mostly Cloudy
9:53 AM -8.0 °F - -13.0 °F 79% 30.81 in 7.0 mi Calm Calm - N/A Fog Patches of Fog
10:53 AM -5.1 °F - -11.0 °F 76% 30.82 in 7.0 mi Calm Calm - N/A Fog Patches of Fog
11:24 AM -7.6 °F - -13.0 °F 77% 30.80 in 1.5 mi Calm Calm - N/A Fog Patches of Fog
11:46 AM -9.4 °F -18.6 °F -13.0 °F 84% 30.80 in 3.0 mi SE 3.5 mph - N/A Fog Patches of Fog
11:53 AM -7.1 °F -15.9 °F -11.9 °F 79% 30.82 in 3.0 mi ESE 3.5 mph - N/A Fog Patches of Fog
12:29 PM -7.6 °F - -13.0 °F 77% 30.80 in 1.0 mi Calm Calm - N/A Fog Patches of Fog
12:53 PM -4.0 °F - -9.0 °F 79% 30.82 in 1.0 mi Calm Calm - N/A   Mostly Cloudy
1:05 PM -4.0 °F - -9.4 °F 78% 30.80 in 0.5 mi Calm Calm - N/A Fog Light Freezing Fog
1:27 PM -5.8 °F - -9.4 °F 84% 30.80 in 1.0 mi Calm Calm - N/A Fog Mostly Cloudy
1:53 PM -4.0 °F - -9.0 °F 79% 30.82 in 1.0 mi Calm Calm - N/A Fog Patches of Fog
2:26 PM -0.4 °F - -7.6 °F 72% 30.80 in 7.0 mi Calm Calm - N/A Fog Patches of Fog
2:53 PM -4.0 °F - -9.9 °F 76% 30.81 in 10.0 mi Calm Calm - N/A Fog Patches of Fog
3:53 PM -5.1 °F - -9.0 °F 83% 30.81 in 10.0 mi Calm Calm - N/A Fog Patches of Fog
4:53 PM -4.0 °F - -9.9 °F 76% 30.81 in 10.0 mi Calm Calm - N/A Fog Scattered Clouds
5:53 PM -7.1 °F - -11.9 °F 79% 30.79 in 10.0 mi Calm Calm - N/A Fog Scattered Clouds
6:53 PM -9.9 °F -19.2 °F -15.0 °F 78% 30.79 in 10.0 mi ESE 3.5 mph - N/A Fog Scattered Clouds
7:53 PM -5.1 °F - -9.9 °F 80% 30.79 in 10.0 mi Calm Calm - N/A Fog Scattered Clouds
8:53 PM -4.0 °F - -9.0 °F 79% 30.79 in 10.0 mi Calm Calm - N/A Fog Mostly Cloudy
9:53 PM -7.1 °F - -11.0 °F 83% 30.79 in 10.0 mi Calm Calm - N/A   Scattered Clouds
10:53 PM -6.0 °F - -13.0 °F 72% 30.79 in 10.0 mi Calm Calm - N/A Fog Partly Cloudy
11:53 PM -9.9 °F -19.2 °F -14.1 °F 82% 30.78 in 10.0 mi SE 3.5 mph - N/A Fog Scattered Clouds